EW4785 Weather Reports


Display with metric or nautical units.
time (UTC)temp
F
wind
direction
speed
MPH
gust
MPH
rain 1hr
in
rain 24hr
in
rain mn
in
humidity
%
barometer
mb
20260507211544 56 65 0.0 2.0 0.04 0.68 0.47 95 1009.4
20260507210045 56 102 0.0 5.0 0.03 0.67 0.46 95 1009.3
20260507204551 56 47 0.0 3.0 0.00 0.64 0.43 94 1009.6
20260507203042 56 69 0.0 3.0 0.00 0.64 0.43 94 1009.2
20260507201549 56 46 1.0 5.0 0.00 0.64 0.43 93 1009.3
20260507200049 57 150 0.0 3.0 0.00 0.64 0.43 93 1009.2
20260507194546 57 51 1.0 3.0 0.00 0.64 0.43 94 1009.2
20260507193037 57 151 1.0 4.0 0.00 0.64 0.43 95 1008.9
20260507191537 57 76 2.0 5.0 0.00 0.64 0.43 95 1009.1
20260507190038 57 42 1.0 4.0 0.00 0.64 0.43 96 1009.1
20260507184537 57 88 1.0 5.0 0.00 0.65 0.43 96 1009.2
20260507183042 57 52 1.0 4.0 0.00 0.65 0.43 95 1009.3
20260507181531 58 46 0.0 3.0 0.00 0.65 0.43 95 1009.0
20260507180031 59 36 1.0 4.0 0.00 0.65 0.43 94 1009.4
20260507174531 62 360 2.0 6.0 0.00 0.65 0.43 93 1008.8
20260507173022 64 10 0.0 2.0 0.00 0.65 0.43 97 1008.9
20260507171528 64 350 0.0 2.0 0.00 0.65 0.43 96 1008.8
20260507170022 64 59 0.0 4.0 0.00 0.65 0.43 95 1009.3
20260507164521 66 92 1.0 4.0 0.01 0.65 0.43 97 1008.3
20260507163018 66 270 0.0 3.0 0.03 0.65 0.43 98 1008.3
20260507161517 65 286 0.0 2.0 0.07 0.65 0.43 98 1008.6
20260507160028 65 295 0.0 2.0 0.07 0.65 0.43 97 1009.0
20260507154517 65 295 0.0 2.0 0.07 0.64 0.42 97 1009.3
20260507153014 65 288 0.0 3.0 0.05 0.62 0.40 97 1009.9
20260507151514 65 302 0.0 3.0 0.02 0.57 0.36 97 1009.9
20260507150015 65 278 0.0 2.0 0.03 0.57 0.36 98 1009.1
20260507144512 65 267 0.0 2.0 0.04 0.56 0.35 98 1009.2
20260507143026 65 267 0.0 2.0 0.04 0.56 0.35 98 1009.4
20260507141511 65 267 0.0 2.0 0.05 0.56 0.34 98 1009.0
20260507140010 65 267 0.0 0.0 0.10 0.55 0.33 98 1008.5
20260507134509 65 267 0.0 1.0 0.09 0.53 0.31 98 1009.2
20260507133008 65 267 0.0 2.0 0.09 0.53 0.31 98 1009.3
20260507131510 65 259 0.0 3.0 0.08 0.51 0.28 98 1009.6
20260507130019 64 300 1.0 4.0 0.05 0.45 0.23 98 1010.5
20260507124506 64 214 0.0 1.0 0.04 0.44 0.22 98 1010.1
20260507123007 64 213 0.0 2.0 0.05 0.44 0.22 98 1009.7
20260507121506 64 153 0.0 3.0 0.05 0.43 0.21 98 1010.0
20260507120006 64 167 0.0 2.0 0.02 0.40 0.18 97 1010.1
20260507114505 64 175 1.0 2.0 0.02 0.40 0.18 98 1009.3
20260507113104 64 132 0.0 2.0 0.01 0.39 0.17 97 1009.1
20260507111504 64 184 0.0 2.0 0.00 0.38 0.16 98 1009.3
20260507104502 64 170 1.0 2.0 0.04 0.38 0.16 97 1009.8
20260507103101 63 175 1.0 2.0 0.04 0.38 0.16 97 1009.9
20260507101602 63 250 0.0 1.0 0.04 0.38 0.16 97 1009.4
20260507094558 63 179 0.0 4.0 0.01 0.35 0.13 97 1009.5
20260507093057 63 192 2.0 5.0 0.00 0.34 0.12 97 1009.5
20260507091557 63 180 1.0 4.0 0.01 0.34 0.12 97 1009.3
20260507084558 63 190 1.0 3.0 0.02 0.34 0.12 97 1009.4
20260507083058 63 202 1.0 5.0 0.02 0.34 0.12 97 1009.5
20260507081556 64 142 0.0 3.0 0.02 0.33 0.11 97 1009.7
20260507080104 64 182 0.0 3.0 0.01 0.32 0.10 97 1010.3
20260507074556 63 187 1.0 4.0 0.01 0.32 0.10 97 1010.3
20260507073053 63 194 1.0 4.0 0.01 0.32 0.10 97 1009.8
20260507071553 63 163 0.0 4.0 0.00 0.31 0.09 97 1010.0
20260507064621 63 162 0.0 2.0 0.01 0.31 0.09 96 1010.9
20260507063052 63 147 0.0 2.0 0.02 0.31 0.09 96 1011.1
20260507061548 64 147 0.0 2.0 0.02 0.31 0.09 96 1011.5
20260507060110 64 220 0.0 3.0 0.01 0.30 0.08 96 1011.7
20260507054551 64 220 0.0 3.0 0.01 0.30 0.08 95 1011.6
20260507053045 64 182 0.0 3.0 0.00 0.28 0.07 95 1011.8
20260507051559 64 182 0.0 1.0 0.04 0.28 0.07 95 1011.6
20260507050048 64 182 0.0 3.0 0.07 0.28 0.07 95 1011.7
20260507044542 64 13 1.0 4.0 0.12 0.28 0.07 95 1012.1
20260507043042 64 173 2.0 7.0 0.22 0.28 0.07 95 1010.5
20260507041537 65 169 2.0 7.0 0.19 0.25 0.03 95 1011.8
20260507040035 65 155 1.0 6.0 0.18 0.22 0.00 94 1012.2
20260507034534 66 156 3.0 6.0 0.14 0.16 0.16 93 1013.2
20260507033031 66 170 2.0 6.0 0.05 0.07 0.07 92 1013.4
20260507031533 67 192 2.0 7.0 0.04 0.06 0.06 91 1012.9
20260507030035 67 142 2.0 5.0 0.02 0.03 0.03 91 1012.3
20260507024529 67 166 2.0 6.0 0.01 0.02 0.02 91 1012.6
20260507023028 67 195 2.0 5.0 0.01 0.02 0.02 91 1012.2
20260507021527 67 189 2.0 4.0 0.01 0.02 0.02 91 1012.0
20260507020028 67 91 0.0 1.0 0.00 0.01 0.01 90 1011.5
20260507014526 68 91 0.0 1.0 0.00 0.01 0.01 90 1011.3
20260507013026 68 91 0.0 1.0 0.00 0.01 0.01 89 1011.4
20260507011525 68 91 0.0 1.0 0.00 0.01 0.01 88 1011.4
20260507010034 68 91 0.0 2.0 0.00 0.01 0.01 87 1011.5
20260507004526 69 91 0.0 1.0 0.00 0.01 0.01 85 1011.7
20260507003023 69 91 0.0 1.0 0.00 0.01 0.01 84 1011.4
20260507001526 70 91 0.0 2.0 0.00 0.01 0.01 83 1011.5
20260507000023 70 197 0.0 0.0 0.00 0.01 0.01 82 1011.4
20260506234526 71 197 0.0 2.0 0.00 0.01 0.01 81 1011.4
20260506233023 71 197 0.0 3.0 0.00 0.01 0.01 80 1011.3
20260506231521 71 178 1.0 4.0 0.00 0.01 0.01 79 1011.5
20260506230025 72 176 1.0 5.0 0.00 0.01 0.01 78 1011.5
20260506224518 72 206 2.0 9.0 0.00 0.01 0.01 77 1011.7
20260506223017 72 161 2.0 10.0 0.00 0.01 0.01 76 1011.6
20260506221519 73 217 3.0 10.0 0.00 0.01 0.01 74 1011.7
20260506220016 73 170 1.0 11.0 0.00 0.01 0.01 74 1011.3
20260506214512 73 178 2.0 11.0 0.00 0.01 0.01 75 1011.1
20260506213010 73 98 4.0 10.0 0.00 0.01 0.01 74 1011.3